Temp
21 21 21 21 21 21 21 22 22 23 23 23 23 23 22 22 21 21 21 21 21 21 21 22 22 22 22 22 22 22 21 21 18 18 18 18 18 18 18 18 18 18 18
22 22 22 22 22 21 22 22 22 23 23 23 23 22 21 21 21 22 21 20 20 20 21 21 21 21 22 22 22 22 20 21 20 18 18 18 18 17 18 18 18 18 17
22 22 22 22 22 22 22 22 22 22 23 22 22 22 21 21 21 20 20 20 20 20 20 20 20 21 21 21 20 21 21 21 20 19 17 17 17 18 17 17 17 17 17
23 22 22 22 22 22 22 22 23 22 23 22 21 21 21 21 20 20 20 19 19 19 19 19 19 20 21 21 20 21 20 20 19 19 17 17 17 17 17 17 17 17 17
22 22 22 22 22 22 22 22 22 22 22 22 22 21 20 20 20 20 19 19 19 18 18 19 19 19 19 20 21 20 20 19 18 17 16 16 16 16 17 16 16 17 17
22 23 23 23 22 22 22 22 21 22 20 21 21 20 20 20 19 19 19 19 18 18 19 19 18 18 19 19 20 20 20 20 18 17 17 16 15 15 16 16 16 16 16
23 23 23 23 22 22 22 22 21 21 20 20 20 20 20 19 19 19 19 19 18 19 18 18 18 18 18 18 18 18 18 18 18 19 18 16 16 16 16 16 16 16 16
23 23 23 23 22 22 22 22 22 21 21 21 21 20 20 19 19 19 19 19 19 18 18 18 18 17 17 18 18 18 18 17 17 17 17 16 16 16 16 16 16 16 15
22 23 23 23 22 22 22 22 22 21 21 21 20 20 19 19 19 19 19 19 18 18 18 17 17 17 17 17 18 17 17 16 16 16 16 16 15 15 15 15 15 15 15
23 24 24 23 23 23 23 22 21 21 21 20 20 20 20 20 19 19 19 19 18 18 17 17 17 17 17 17 17 17 17 17 17 16 16 16 16 15 16 16 16 15 15
23 23 23 23 24 24 23 22 21 20 20 20 20 20 20 20 19 19 19 19 19 18 18 17 17 17 17 17 17 17 17 17 17 17 16 16 16 16 16 16 16 16 16
23 23 23 23 23 22 22 21 21 20 20 20 19 19 19 19 19 19 19 19 19 19 18 18 18 18 17 17 17 17 17 17 17 17 17 17 17 17 16 16 16 16 16
23 22 22 23 22 22 21 20 20 20 19 18 18 18 19 19 18 19 19 19 19 18 18 18 18 18 18 17 17 17 17 17 17 17 17 17 17 17 17 16 16 16 16
22 22 22 20 20 21 20 20 19 18 18 17 17 17 18 18 18 18 18 18 18 18 18 18 18 18 18 18 17 16 17 17 17 18 17 17 17 16 16 16 16 16 16
22 21 21 20 20 20 20 20 20 21 21 19 19 18 18 18 19 19 18 18 18 18 18 18 17 17 17 17 17 17 17 17 17 17 17 17 17 16 17 16 16 16 16
22 21 21 21 20 20 20 20 20 20 21 21 21 22 21 20 20 20 19 19 18 18 18 18 18 17 17 17 18 17 17 17 17 17 17 17 17 17 17 16 16 16 15
23 22 21 21 20 20 20 20 19 19 19 20 20 20 21 22 21 20 20 19 18 18 17 18 18 18 17 17 18 18 17 18 18 17 17 17 16 16 16 16 16 16 15
23 23 22 21 21 21 20 20 20 19 18 18 19 19 20 20 20 20 20 19 17 16 16 17 17 18 18 18 18 18 18 18 18 18 17 17 17 16 16 16 16 16 15
23 22 22 21 21 21 21 20 20 19 18 19 18 19 18 19 19 19 19 18 16 15 16 15 16 17 18 18 18 18 18 18 18 18 18 18 18 17 16 16 16 16 15
23 23 22 22 22 21 21 21 20 19 19 18 18 19 19 18 17 17 17 17 16 16 16 17 17 17 17 17 18 18 18 18 18 18 18 18 18 18 17 16 16 16 15
23 23 22 21 21 21 21 21 20 20 19 19 18 18 20 20 17 17 17 18 17 16 16 17 17 17 17 17 16 16 17 17 18 18 18 18 18 18 17 17 16 16 16
21 22 22 21 21 21 20 20 21 20 19 19 18 18 19 19 19 18 18 18 19 19 18 19 18 18 18 18 18 17 16 16 17 18 18 18 18 18 17 17 16 16 15
22 22 22 20 19 19 20 20 20 20 20 19 19 19 18 18 18 18 18 18 18 19 19 18 18 18 18 18 18 18 18 17 18 19 18 18 18 16 16 16 16 15 15
23 21 24 25 26 23 19 21 21 20 20 20 20 20 19 19 19 19 19 19 19 19 19 19 19 19 18 17 18 18 18 18 17 18 18 18 17 16 15 15 15 15 15
22 22 21 20 20 17 18 20 21 21 21 21 21 20 20 19 20 20 20 20 20 20 20 20 19 18 18 19 18 18 19 18 18 17 18 17 17 15 16 14 15 15 14
22 21 21 20 20 22 21 21 21 22 22 22 21 21 21 21 21 22 21 20 20 21 21 20 20 20 20 19 19 19 19 18 17 17 17 16 16 15 15 14 14 15 14
Height
796 799 803 806 811 815 819 823 826 828 829 828 830 831 832 833 834 836 838 839 840 841 840 839 840 840 840 841 842 842 843 845 849 855 855 856 858 858 859 860 859 860 860
793 797 800 804 808 812 816 820 824 825 826 827 828 830 831 833 835 836 837 839 841 841 841 840 841 842 842 842 843 842 843 846 847 852 855 856 858 858 859 859 861 861 862
792 795 799 803 807 810 814 819 822 824 825 826 828 829 832 834 835 837 838 840 841 843 841 842 843 844 844 843 844 843 845 847 850 851 856 858 857 857 859 860 861 862 862
789 794 798 802 806 810 814 818 821 822 824 825 827 827 831 833 836 838 839 841 843 843 841 844 844 845 845 845 846 847 848 850 853 855 857 859 860 860 860 860 860 862 863
788 793 796 800 805 810 814 817 819 821 823 823 823 826 830 833 835 838 840 842 843 842 843 845 845 846 848 848 847 848 849 851 854 857 859 860 860 861 861 862 861 861 862
785 790 795 799 804 809 813 815 818 820 822 823 824 826 829 833 836 839 841 842 841 842 844 845 847 848 848 848 849 850 851 852 855 857 857 859 862 863 863 863 863 863 863
781 787 792 798 802 806 810 813 816 818 821 822 823 825 828 833 836 839 841 841 842 844 846 847 849 850 850 851 853 854 855 857 858 858 857 859 860 861 862 863 863 863 864
775 781 788 794 799 804 806 809 812 815 817 819 822 826 830 832 836 838 839 840 843 845 847 849 851 852 853 854 855 856 857 858 859 860 863 863 864 864 864 864 865 865 865
774 777 783 789 795 799 802 806 809 812 816 819 822 825 828 831 834 836 837 840 843 845 847 850 852 854 854 856 857 858 859 860 861 863 864 865 866 865 865 865 865 866 865
769 770 777 784 789 794 798 801 806 810 813 818 821 824 827 829 831 833 835 838 841 843 846 849 852 853 854 856 858 858 859 859 859 862 863 864 865 866 866 865 865 863 863
766 769 774 780 784 789 793 798 803 807 811 814 818 821 824 826 829 830 833 836 838 841 844 847 850 852 852 854 855 857 858 858 859 860 862 863 863 864 865 865 865 865 863
760 766 771 776 781 786 789 794 799 802 806 809 813 816 819 822 825 828 831 835 837 840 842 846 848 849 849 851 853 855 856 857 858 859 858 859 860 861 862 862 863 865 866
757 762 767 772 777 782 786 791 795 798 802 804 807 810 814 817 821 825 829 833 835 838 841 844 846 846 847 848 850 852 853 854 855 855 856 857 858 859 860 860 861 862 863
752 758 763 768 773 778 782 786 790 793 796 799 802 805 808 813 815 819 823 828 832 835 838 841 842 843 844 845 847 848 849 850 851 852 854 855 856 857 858 858 858 858 858
748 754 760 765 767 772 776 779 781 783 786 789 792 797 801 805 805 812 816 820 825 830 834 836 837 838 839 841 842 843 844 846 848 850 851 851 853 856 856 856 856 855 854
745 749 754 760 764 767 771 775 778 780 782 786 789 791 794 799 803 808 812 817 822 825 827 827 828 830 832 835 836 837 839 841 843 845 846 848 850 851 852 853 852 852 852
737 744 750 756 760 763 767 770 772 776 779 782 784 787 790 794 798 802 806 811 815 819 818 819 820 821 823 827 830 832 833 835 838 840 841 843 845 847 848 849 849 849 850
730 736 741 748 756 761 762 764 767 769 771 773 776 779 783 787 792 796 800 805 807 808 809 810 810 812 815 819 822 824 827 830 831 832 834 836 838 839 839 840 842 843 845
728 734 740 740 749 756 760 762 763 764 765 767 770 772 775 780 786 790 793 793 794 795 797 800 802 804 806 808 811 815 818 819 820 823 824 827 829 831 832 832 833 833 833
725 730 736 739 743 749 754 757 759 761 762 762 761 760 766 774 776 777 780 782 783 784 786 789 791 794 795 797 800 803 806 809 811 813 816 818 818 820 822 825 827 829 831
722 728 733 737 739 741 746 750 754 756 756 756 754 757 756 760 762 764 765 767 769 772 775 778 780 782 784 787 790 791 793 796 799 802 804 806 808 810 813 816 819 822 824
723 725 734 737 742 746 746 746 746 748 748 747 749 751 752 754 753 752 753 754 755 758 762 765 766 768 771 774 776 779 781 782 785 789 793 796 797 799 802 805 808 812 816
713 710 724 732 736 739 746 744 743 740 739 737 739 742 744 743 744 743 742 744 746 747 750 752 754 756 758 761 763 765 767 769 772 775 777 781 784 787 789 793 797 804 807
715 716 714 715 714 704 724 735 737 734 729 729 725 729 731 733 734 733 734 735 736 736 738 739 740 741 745 750 752 754 755 759 761 763 770 773 775 778 783 785 787 792 797
716 715 717 711 711 721 721 725 725 725 719 719 714 718 722 722 723 723 723 724 724 724 725 728 729 731 734 736 740 741 742 746 750 752 755 759 760 765 768 773 776 783 788
710 710 710 711 709 703 702 706 712 712 708 707 703 707 712 712 711 711 711 712 714 715 715 717 720 724 726 728 731 733 735 738 741 743 746 750 752 751 753 764 769 773 779
Wind_Speed
28 26 24 22 21 21 20 18 19 13 11 11 11 10 10 13 14 12 10 9 8 8 9 11 11 9 10 8 7 9 11 12 13 8 7 7 8 7 6 5 5 5 7
27 25 22 20 19 20 21 18 18 13 11 12 12 10 10 12 13 11 11 10 9 10 10 11 11 8 6 6 6 8 15 16 24 17 11 7 8 10 8 6 3 1 3
24 22 21 22 20 20 20 18 16 12 12 14 14 10 12 14 14 12 11 10 8 9 9 9 10 7 7 7 11 15 18 20 20 21 12 9 5 8 10 8 6 3 5
23 22 22 22 22 21 21 18 15 14 16 13 12 13 14 14 15 13 11 10 10 9 9 9 8 6 7 9 13 15 17 19 18 17 14 10 8 8 6 3 4 4 4
25 25 24 23 23 20 20 20 17 15 19 14 10 15 12 16 16 13 11 11 11 10 10 9 7 7 7 7 11 17 19 20 18 14 9 5 4 3 3 2 7 7 7
29 28 25 25 24 21 19 17 17 16 17 18 18 16 16 15 15 13 11 10 12 14 15 12 10 10 10 9 9 13 17 21 16 9 6 5 6 6 5 5 7 4 2
32 30 29 26 26 24 22 20 19 21 22 23 18 15 16 16 17 15 11 11 15 15 15 14 12 10 9 10 11 12 10 7 5 4 8 9 8 5 4 4 6 6 3
36 34 33 30 28 27 23 22 21 21 21 18 15 18 19 18 19 18 13 12 15 16 14 11 10 10 9 8 9 10 10 11 11 11 11 11 8 6 5 12 13 11 8
31 35 37 36 32 32 27 26 26 23 22 20 20 21 22 21 20 19 16 16 18 17 14 12 11 10 9 8 8 12 13 13 12 9 9 8 7 8 5 4 4 5 3
32 38 39 38 37 34 29 28 27 27 25 22 22 23 22 22 21 23 21 20 21 18 18 18 13 10 11 11 8 10 12 12 10 7 5 4 2 1 3 5 3 5 4
35 33 36 38 38 36 31 31 29 28 26 24 24 23 23 22 22 25 26 24 21 20 17 18 17 13 11 14 12 10 11 12 9 7 5 7 7 7 5 3 1 1 1
35 36 37 37 35 34 33 33 31 30 28 27 27 25 23 22 23 26 29 27 21 21 20 17 15 13 12 13 13 12 12 12 10 9 9 10 10 8 8 8 5 6 9
33 33 34 37 35 33 32 32 31 31 31 30 30 29 26 24 25 26 28 27 23 21 18 17 16 13 12 13 14 13 15 14 11 11 10 10 9 8 9 9 9 7 7
32 32 32 30 30 32 31 33 29 29 28 26 28 28 31 28 29 31 30 29 26 23 20 16 16 16 15 13 15 15 16 15 12 11 12 11 10 11 10 9 8 7 6
31 29 28 27 31 30 33 36 37 38 39 35 36 34 33 34 37 37 37 34 31 27 23 22 22 22 22 19 19 20 20 18 15 13 15 14 12 11 10 10 9 8 7
27 27 28 27 27 28 29 28 34 35 37 37 33 32 34 34 32 32 37 38 34 29 26 26 28 29 30 28 26 24 22 23 21 18 16 17 15 13 13 12 13 11 11
31 29 27 26 24 26 26 27 26 35 31 33 36 35 31 26 30 29 30 37 38 35 31 32 33 33 34 34 31 29 28 27 24 23 21 19 18 17 16 16 16 12 12
34 34 32 31 26 25 27 28 26 25 28 34 36 37 35 32 28 27 27 29 38 40 37 37 37 36 35 37 36 34 30 28 29 28 27 25 24 23 22 22 19 16 12
30 28 29 30 28 26 24 25 25 24 25 26 26 35 38 34 30 28 28 35 38 37 45 37 38 39 40 40 40 38 35 33 34 34 31 30 29 29 29 26 22 20 17
27 26 28 24 24 26 25 24 23 24 23 24 28 35 34 38 38 38 37 39 39 38 39 44 43 42 43 44 43 41 40 38 36 35 34 33 33 34 35 31 26 22 20
23 22 25 23 24 28 27 27 24 25 26 26 29 28 37 38 37 40 44 47 46 40 38 41 43 43 43 43 42 41 41 40 41 40 37 34 33 36 39 35 30 27 22
1 4 13 16 12 15 22 26 27 28 29 29 27 28 31 35 37 38 41 45 50 50 47 47 47 47 47 45 45 44 41 41 41 41 41 38 35 38 41 39 34 30 25
17 11 13 7 7 17 30 26 27 30 30 29 26 26 32 39 38 37 39 41 41 46 47 48 50 47 48 48 47 46 45 43 43 42 42 41 38 39 42 39 36 34 29
8 18 19 21 17 30 41 40 35 36 32 31 28 30 31 39 41 42 39 38 41 43 45 46 48 50 46 45 46 47 47 44 42 40 37 37 40 38 37 35 37 39 34
11 17 22 26 32 40 42 38 35 36 31 32 27 27 31 35 40 40 40 40 41 42 43 43 44 44 43 44 44 44 43 42 41 41 37 38 38 36 38 37 39 38 36
15 18 24 34 43 39 28 29 38 38 33 30 28 30 32 34 40 41 39 39 40 42 42 41 40 39 38 38 37 38 39 38 36 37 33 35 38 37 37 36 37 41 40
Wind_Direction
215 216 218 216 214 215 223 222 222 226 224 227 234 230 219 203 174 177 169 168 173 157 154 145 135 142 155 175 196 203 202 179 129 123 142 167 184 182 171 147 111 66 56
213 213 211 206 206 211 212 210 206 217 222 217 211 196 166 167 175 182 174 169 159 153 147 142 143 147 147 168 201 203 166 161 141 133 137 163 205 201 202 201 183 27 12
206 203 203 199 198 199 198 194 195 201 201 178 170 170 175 180 178 176 173 165 163 162 147 150 147 148 133 138 146 141 151 153 152 148 129 106 113 179 196 215 221 256 327
200 195 195 197 194 195 188 188 188 190 182 160 170 168 179 184 179 169 165 159 161 153 148 152 145 146 143 148 157 156 153 154 154 145 130 123 115 117 136 152 202 227 328
192 196 197 190 191 193 196 192 189 187 185 180 172 179 182 177 175 172 171 169 170 146 143 144 149 151 142 148 169 172 168 160 162 151 134 162 155 144 120 80 131 128 60
191 191 193 191 194 198 196 193 194 200 190 181 182 184 173 178 177 178 179 184 164 150 144 138 132 137 146 145 146 168 183 179 166 157 170 164 137 117 121 129 156 189 304
189 192 191 197 197 197 196 200 198 194 189 189 180 178 177 181 182 187 184 169 159 159 155 144 141 137 132 135 136 138 148 161 177 212 167 144 137 132 120 126 133 133 103
187 190 193 193 196 196 198 207 210 200 193 198 197 190 189 189 191 191 184 174 172 170 167 167 171 154 136 129 127 124 121 116 107 101 95 99 93 84 90 126 112 100 87
189 191 197 197 199 201 207 209 210 207 204 205 200 197 197 195 195 194 190 185 186 187 190 196 194 184 166 153 140 134 127 120 118 114 105 94 79 67 107 159 189 180 106
197 196 200 200 201 201 207 207 208 207 209 205 205 205 204 203 200 201 201 197 196 207 214 212 208 200 193 187 180 171 161 160 158 156 159 166 161 111 59 85 128 143 157
197 196 198 200 205 208 207 207 206 206 208 205 207 206 207 208 208 206 208 209 208 207 212 205 210 203 197 197 203 200 199 190 193 196 230 229 228 224 219 188 133 318 329
194 197 199 203 203 205 207 207 207 207 206 207 207 208 210 214 217 214 214 216 221 217 215 213 204 198 199 203 209 211 212 206 210 227 240 240 223 231 219 213 232 274 282
191 193 196 201 204 207 203 202 203 209 206 205 206 211 212 216 214 211 211 215 221 225 226 221 211 208 205 213 217 219 216 214 218 239 226 202 221 226 225 226 233 262 276
186 191 193 186 191 202 204 206 200 201 203 202 205 211 216 216 215 210 210 213 219 222 220 220 217 218 221 225 219 216 214 212 221 220 204 208 221 229 233 232 226 246 255
185 186 189 192 190 193 203 205 207 215 213 206 212 213 212 218 221 216 211 211 214 217 218 223 224 222 222 224 225 224 219 218 222 220 219 219 223 233 235 233 237 248 238
183 184 189 193 196 197 199 208 219 224 225 229 235 231 230 232 230 224 221 222 220 218 219 223 226 228 227 225 225 225 222 223 225 225 224 228 232 231 238 232 239 249 249
189 190 190 193 196 197 200 204 209 221 227 232 234 238 240 239 235 234 230 226 226 223 224 228 231 232 232 229 229 230 231 229 229 230 232 235 237 238 237 237 234 241 247
195 195 189 193 201 208 210 214 214 210 211 219 225 229 238 240 236 236 234 228 223 224 227 230 232 236 236 234 232 233 236 236 234 234 235 238 239 236 232 230 229 234 235
193 197 198 189 197 209 217 219 220 218 215 219 221 226 228 232 236 237 236 231 222 222 224 227 234 237 239 239 238 238 239 240 239 238 238 238 239 234 235 232 229 232 221
199 204 199 198 198 207 218 222 225 229 224 219 219 226 225 219 221 225 229 230 228 226 225 227 231 235 238 240 240 241 243 244 245 241 241 244 241 233 233 232 228 224 224
196 206 210 200 200 205 212 216 221 230 232 229 230 228 232 223 216 221 226 230 230 228 228 232 234 235 237 239 240 239 240 243 245 243 241 242 241 233 232 233 228 223 223
163 170 212 216 242 246 229 221 219 224 230 232 236 232 231 233 228 225 227 231 235 235 235 238 238 240 241 243 242 241 239 238 240 243 243 243 243 236 231 229 225 215 210
335 251 214 181 285 308 295 251 234 228 232 231 229 231 228 231 230 230 232 235 235 241 243 240 241 241 244 246 247 249 245 241 246 247 242 240 237 233 226 220 218 208 204
299 221 219 225 293 322 282 258 254 239 231 231 223 227 230 234 237 238 238 239 244 247 249 246 246 246 243 246 249 251 253 251 249 249 251 247 239 234 224 214 210 207 200
241 224 199 195 201 227 235 241 249 245 233 233 227 229 232 236 242 243 246 245 249 251 251 252 252 248 249 250 251 255 258 257 251 251 249 245 237 230 225 214 209 203 197
244 233 220 228 241 249 220 233 242 240 234 231 229 231 233 232 242 248 248 245 246 251 254 255 255 255 257 257 257 258 259 259 254 250 247 245 234 223 218 210 207 199 194